Location: Newark
(41.5333°N, 14.5500°E)
Time: 13:53:23
(UTC+00:00)

X-37B - Pass Details

Date: 11 March 2021
Orbit: 380 x 394 km, 45.0° (Epoch: 07 April)

Event Time Altitude Azimuth Distance (km) Brightness Sun altitude
Rises 19:15:19 0° 248° (WSW) 2,267 5.2 -25.0°
Reaches altitude 10° 19:17:23 10° 248° (WSW) 1,417 4.0 -25.4°
Enters shadow 19:18:24 19° 248° (WSW) 1,011 3.2 -25.6°
